TimeEST,TemperatureF,Dew PointF,Humidity,Sea Level PressureIn,VisibilityMPH,Wind Direction,Wind SpeedMPH,Gust SpeedMPH,PrecipitationIn,Events,Conditions,WindDirDegrees,DateUTC
12:53 AM,57.9,55.9,93,29.98,6.0,Calm,Calm,-,N/A,,Clear,0,2012-12-10 05:53:00
1:53 AM,57.9,57.0,97,29.96,7.0,Calm,Calm,-,N/A,,Overcast,0,2012-12-10 06:53:00
2:03 AM,59.0,57.2,94,29.96,8.0,Calm,Calm,-,N/A,,Overcast,0,2012-12-10 07:03:00
2:53 AM,59.0,57.0,93,29.94,7.0,Calm,Calm,-,N/A,,Mostly Cloudy,0,2012-12-10 07:53:00
3:10 AM,59.0,57.2,94,29.95,7.0,Calm,Calm,-,N/A,,Mostly Cloudy,0,2012-12-10 08:10:00
3:53 AM,59.0,57.0,93,29.93,7.0,Calm,Calm,-,N/A,,Overcast,0,2012-12-10 08:53:00
4:05 AM,59.0,57.2,94,29.93,6.0,Calm,Calm,-,N/A,,Scattered Clouds,0,2012-12-10 09:05:00
4:53 AM,57.9,55.9,93,29.92,6.0,Calm,Calm,-,N/A,,Scattered Clouds,0,2012-12-10 09:53:00
5:03 AM,57.2,57.2,100,29.92,6.0,Calm,Calm,-,N/A,,Mostly Cloudy,0,2012-12-10 10:03:00
5:17 AM,57.2,55.4,94,29.91,6.0,Calm,Calm,-,N/A,,Scattered Clouds,0,2012-12-10 10:17:00
5:53 AM,57.0,55.9,96,29.91,5.0,Calm,Calm,-,N/A,,Scattered Clouds,0,2012-12-10 10:53:00
6:02 AM,57.2,55.4,94,29.92,7.0,Calm,Calm,-,N/A,,Mostly Cloudy,0,2012-12-10 11:02:00
6:16 AM,57.2,55.4,94,29.92,6.0,Calm,Calm,-,N/A,,Mostly Cloudy,0,2012-12-10 11:16:00
6:53 AM,57.0,55.9,96,29.91,6.0,Calm,Calm,-,N/A,,Partly Cloudy,0,2012-12-10 11:53:00
7:23 AM,55.4,55.4,100,29.91,5.0,Calm,Calm,-,N/A,,Scattered Clouds,0,2012-12-10 12:23:00
7:32 AM,55.4,55.4,100,29.91,5.0,Calm,Calm,-,N/A,,Mostly Cloudy,0,2012-12-10 12:32:00
7:43 AM,55.4,55.4,100,29.90,4.0,Calm,Calm,-,N/A,,Overcast,0,2012-12-10 12:43:00
7:53 AM,57.0,55.0,93,29.90,3.0,Calm,Calm,-,N/A,,Mostly Cloudy,0,2012-12-10 12:53:00
8:09 AM,55.4,55.4,100,29.90,4.0,Calm,Calm,-,N/A,,Partly Cloudy,0,2012-12-10 13:09:00
8:35 AM,59.0,57.2,94,29.90,2.5,Calm,Calm,-,N/A,,Scattered Clouds,0,2012-12-10 13:35:00
8:53 AM,60.1,59.0,96,29.90,4.0,Calm,Calm,-,N/A,,Partly Cloudy,0,2012-12-10 13:53:00
9:53 AM,62.1,59.0,90,29.91,8.0,Calm,Calm,-,N/A,,Clear,0,2012-12-10 14:53:00
10:53 AM,66.9,59.0,76,29.89,10.0,SSW,8.1,-,N/A,,Partly Cloudy,210,2012-12-10 15:53:00
11:53 AM,69.1,57.9,68,29.87,10.0,SSW,8.1,-,N/A,,Partly Cloudy,200,2012-12-10 16:53:00
12:53 PM,71.1,57.9,63,29.83,10.0,SSW,8.1,-,N/A,,Partly Cloudy,210,2012-12-10 17:53:00
1:53 PM,72.0,57.0,59,29.80,10.0,SSW,9.2,-,N/A,,Partly Cloudy,200,2012-12-10 18:53:00
2:53 PM,73.0,57.0,57,29.78,10.0,SSW,11.5,-,N/A,,Clear,210,2012-12-10 19:53:00
3:53 PM,73.9,57.0,55,29.76,10.0,South,10.4,18.4,N/A,,Clear,190,2012-12-10 20:53:00
4:53 PM,73.0,57.0,57,29.76,10.0,SSW,11.5,-,N/A,,Clear,200,2012-12-10 21:53:00
5:53 PM,71.1,57.9,63,29.78,10.0,SSW,6.9,-,N/A,,Partly Cloudy,210,2012-12-10 22:53:00
6:53 PM,70.0,59.0,68,29.80,10.0,Variable,3.5,-,0.00,,Overcast,0,2012-12-10 23:53:00
7:53 PM,66.0,61.0,84,29.80,10.0,Calm,Calm,-,0.00,,Overcast,0,2012-12-11 00:53:00
8:53 PM,66.0,59.0,78,29.81,10.0,WNW,6.9,-,N/A,,Overcast,290,2012-12-11 01:53:00
9:53 PM,64.0,59.0,84,29.77,10.0,Calm,Calm,-,N/A,,Clear,0,2012-12-11 02:53:00
10:53 PM,62.1,59.0,90,29.78,10.0,Calm,Calm,-,N/A,,Clear,0,2012-12-11 03:53:00
11:53 PM,60.1,57.9,93,29.78,10.0,Calm,Calm,-,N/A,,Scattered Clouds,0,2012-12-11 04:53:00